Вернуться в каталог

STARLINK-37845

АктивенСвязьVLEO
NORAD 100030·PAYLOAD·🇺🇸 United States

Запущен Jul 14, 2026 с Cape Canaveral Space Force Station

Loading…

Ближайшие Пролёты (ближайшие 24 часа)

TLE

СвежийSource: Space-Track

Эпоха: Sep 14, 2026, 15:08 UTC

1 A0030U 26161C   26257.63072989  .00020681  00000-0  62155-3 0  9994
2 A0030  53.1620  24.8392 0001142  88.6513 271.4620 15.34398587  9711

Отслеживайте STARLINK-37845 в реальном времени с AllMySat

Download on the App Store